Temperature
17 17 17 17 17 17 16 16 16 16 15 16 15 15 15 16 15 15 15 15 15 15 15 14 14 14 14 14 14 14 13 13 13 13 13 13 12 12
17 17 16 16 16 16 16 16 16 16 15 15 15 15 15 15 15 15 15 14 14 14 14 14 14 14 14 13 13 13 13 13 13 13 12 12 12 12
16 16 16 16 16 16 16 16 16 16 15 15 14 14 14 14 14 14 14 14 14 14 14 14 14 13 13 13 13 13 13 12 12 12 12 12 12 12
16 16 16 16 16 16 16 16 16 15 15 15 14 14 14 14 14 13 13 13 13 13 13 13 13 13 13 13 13 12 12 12 12 12 12 12 12 11
16 16 16 16 16 16 15 15 15 15 15 14 14 13 13 13 13 13 13 13 13 13 13 13 13 13 13 12 12 12 12 12 12 12 12 11 11 11
15 15 15 15 15 15 15 15 15 15 14 14 14 13 13 13 13 13 12 12 12 12 12 12 12 12 12 12 12 12 12 11 11 11 11 11 11 11
15 15 15 15 15 15 14 14 14 14 14 13 13 13 13 12 12 12 12 12 12 12 12 12 12 12 12 11 11 11 11 11 11 11 11 10 10 10
15 15 14 14 14 14 14 14 14 14 13 13 13 13 12 12 12 12 12 12 11 11 11 11 11 11 11 11 11 11 11 11 10 10 10 10 10 9
14 14 14 14 14 14 14 14 13 13 13 13 13 12 12 12 12 12 12 12 12 12 11 11 11 11 11 11 11 11 10 10 10 10 10 9 9 9
14 14 14 13 13 13 13 13 13 13 13 12 12 12 12 12 12 12 12 11 11 11 11 11 11 11 10 10 10 10 10 10 10 9 9 9 9 8
14 13 13 13 13 13 13 13 13 12 12 12 12 12 12 12 11 11 11 11 11 11 11 11 10 10 10 10 10 10 10 9 9 9 9 9 8 8
13 13 13 13 13 12 12 12 12 12 12 12 11 11 11 11 11 11 11 11 11 10 10 10 10 10 10 10 10 10 9 9 9 9 8 8 8 8
13 13 13 12 12 12 12 12 11 11 11 11 11 11 11 11 10 10 10 10 10 10 10 10 10 10 10 9 9 9 9 9 9 8 8 8 8 7
12 12 12 12 12 12 11 11 11 11 11 10 10 10 10 10 10 10 10 10 10 10 10 10 10 9 9 9 9 9 9 8 8 8 8 7 7 7
12 12 12 11 11 11 11 11 11 10 10 10 10 10 10 10 10 10 10 10 10 9 9 9 9 9 9 9 9 9 8 8 8 8 7 7 7 7
11 11 11 11 11 11 11 10 10 10 10 10 10 10 9 9 9 9 9 9 9 9 9 9 9 9 9 9 9 8 8 8 7 7 7 7 7 6
11 11 11 11 10 10 10 10 10 9 9 9 9 9 9 9 9 9 9 9 9 9 9 9 9 9 9 8 8 8 8 8 7 7 7 6 6 6
11 10 10 10 10 10 10 9 9 9 9 9 9 9 9 9 9 9 9 8 8 8 8 8 8 8 8 8 8 8 8 7 7 7 7 6 6 6
10 10 10 10 10 9 9 9 9 9 9 9 9 8 9 9 9 9 8 8 8 8 8 8 8 8 8 8 8 8 7 7 7 7 7 7 6 6
10 10 9 9 9 9 9 9 9 9 9 8 8 8 8 8 8 8 8 8 8 8 8 8 8 8 8 8 7 7 7 7 7 7 7 6 6 6
10 10 9 9 9 9 9 9 9 9 8 8 8 8 8 8 8 8 8 8 8 8 8 8 8 7 7 7 7 7 7 7 7 7 6 6 6 6
9 9 9 9 9 9 9 8 8 8 8 8 8 8 8 8 8 8 8 8 8 8 7 7 7 7 7 7 7 7 7 7 6 6 6 6 6 6
9 9 9 9 9 9 8 8 8 8 8 8 8 7 7 7 7 7 7 7 7 7 7 7 7 7 7 7 7 7 7 6 6 6 6 6 6 6
Wind_Speed
3 3 3 3 3 3 3 3 3 3 2 1 0 1 3 3 4 5 5 6 6 7 7 8 8 9 9 9 8 8 8 8 8 8 8 7 7 7
2 2 2 2 2 2 3 3 3 3 2 1 0 1 2 3 4 5 5 5 5 5 6 7 8 8 8 8 7 7 8 8 8 8 8 8 8 8
2 2 1 2 2 2 2 1 1 1 2 1 0 1 1 2 4 4 3 4 4 5 6 6 6 7 7 7 7 7 7 8 8 8 8 8 9 9
1 1 1 1 1 2 2 1 1 1 2 2 1 1 0 1 2 2 3 3 5 6 7 7 7 6 6 6 6 6 7 7 7 8 8 9 9 9
0 1 1 1 1 1 1 1 1 1 2 2 2 1 1 1 1 1 2 3 3 5 7 6 6 6 5 5 5 6 6 7 8 8 8 8 9 9
1 1 1 2 1 1 1 1 1 0 1 2 2 1 1 2 1 1 1 1 1 3 5 6 6 5 5 5 5 6 6 7 7 8 8 8 9 9
1 2 2 2 3 2 1 1 1 0 1 2 2 1 1 1 1 2 1 1 1 2 2 3 4 4 4 4 5 5 6 6 7 8 8 9 9 9
1 1 1 2 2 2 3 3 2 1 1 2 2 2 2 2 1 2 2 2 1 2 2 2 4 3 4 4 5 6 7 7 7 7 8 8 8 9
1 1 1 2 2 2 2 1 2 2 1 2 2 2 2 2 2 2 2 2 2 3 2 2 3 2 4 5 6 7 7 8 8 8 8 9 9 9
1 1 1 2 3 2 1 2 2 2 1 0 0 1 1 1 3 4 4 3 2 2 3 2 3 3 4 5 7 8 8 8 8 9 9 9 9 9
2 3 3 3 4 4 2 1 2 2 3 3 2 2 2 2 1 1 2 2 2 2 1 1 2 2 2 2 6 8 8 9 9 10 10 9 9 8
2 4 6 5 5 4 2 1 1 2 2 1 1 1 2 2 2 1 1 2 1 1 1 1 2 2 2 2 4 6 6 7 8 8 9 10 9 7
1 2 3 5 4 4 3 2 1 2 2 1 0 1 0 0 0 1 0 1 1 1 1 1 1 1 1 2 2 4 6 6 7 7 8 9 9 8
1 2 3 3 2 2 3 3 3 2 1 1 0 1 1 1 1 1 1 2 0 1 2 2 1 1 1 1 1 2 3 5 6 6 7 7 8 8
2 4 4 2 0 0 1 2 2 2 2 1 1 1 0 0 0 0 0 1 0 1 1 2 1 1 1 2 1 2 2 2 4 4 5 5 5 6
2 2 3 2 1 1 1 1 1 2 2 1 1 1 0 0 0 0 1 1 1 1 1 1 1 1 1 1 2 2 2 2 3 3 3 3 5 7
2 1 1 1 0 1 1 1 1 1 1 1 1 1 1 0 1 1 1 1 1 1 1 1 2 2 1 1 2 2 2 2 3 3 3 3 3 5
2 1 1 1 1 1 1 1 1 1 1 1 1 1 1 1 1 1 1 1 1 1 1 1 1 1 1 1 2 3 3 3 3 4 3 3 4 5
2 1 1 1 1 1 1 1 1 1 1 1 1 2 2 2 2 1 1 1 2 2 1 1 2 2 2 2 2 5 3 2 2 3 4 4 4 4
2 2 2 2 1 1 1 1 1 1 1 1 2 2 2 2 2 2 2 2 2 2 2 1 2 2 3 2 2 2 6 5 3 3 3 2 2 3
2 2 2 2 1 1 1 1 1 1 1 1 2 2 2 2 2 2 2 2 2 2 2 2 2 3 2 1 1 1 2 7 7 4 3 3 3 3
2 2 2 2 1 0 0 1 1 1 1 2 2 2 2 2 3 3 3 2 2 2 2 1 1 2 2 2 2 3 3 3 7 10 9 7 3 3
3 2 2 1 1 0 0 1 1 1 1 2 2 2 3 2 3 3 3 3 2 2 2 1 1 1 2 2 2 2 3 3 3 4 5 12 14 13
Wind_Direction
261 264 265 272 266 253 240 224 217 238 250 221 205 81 88 98 125 127 124 137 160 178 192 197 196 197 198 199 201 202 204 204 201 203 203 202 202 197
249 261 269 279 287 279 250 240 226 217 240 238 238 131 106 102 117 119 117 120 145 175 189 190 189 190 189 188 192 195 198 197 196 198 200 201 200 195
276 280 303 313 319 309 285 268 233 197 215 247 99 102 93 102 108 109 111 114 122 146 159 167 167 170 174 180 186 193 196 196 197 198 197 195 193 192
303 336 321 313 316 319 319 308 242 210 183 190 199 223 205 158 148 148 123 114 114 118 130 132 137 148 158 167 179 186 190 193 196 193 189 189 188 186
299 319 327 340 330 344 325 311 293 227 165 170 199 204 210 202 183 166 124 126 123 121 127 130 132 137 147 163 178 182 183 184 185 186 187 187 186 185
47 42 43 37 360 332 302 306 315 307 154 150 171 189 217 221 199 189 181 221 201 145 133 136 140 144 151 157 168 176 178 178 181 185 185 183 181 177
68 70 68 66 54 29 357 4 350 266 178 167 182 188 201 205 217 224 203 224 270 174 157 150 146 146 154 163 166 166 170 177 181 185 185 184 179 173
63 66 104 107 78 62 57 38 15 279 216 198 209 205 226 225 217 215 206 217 227 195 181 192 162 167 160 159 168 174 179 182 186 187 187 187 185 180
101 62 33 57 81 61 51 27 8 20 174 219 215 213 223 220 224 228 230 229 235 212 203 201 184 178 162 167 176 178 184 191 194 195 195 193 189 188
74 82 69 61 45 30 37 43 33 23 356 237 151 253 219 223 235 225 223 231 242 217 190 212 196 190 167 165 179 181 189 197 201 202 203 200 195 190
62 60 68 68 43 39 55 43 43 47 63 87 121 149 161 174 209 243 226 223 238 231 215 213 203 191 177 176 186 190 196 206 209 208 205 200 195 190
85 85 71 59 48 32 47 44 45 27 15 31 87 141 164 179 198 248 256 249 236 216 220 234 216 196 194 177 175 186 200 209 207 207 206 202 196 191
83 84 74 63 50 32 31 35 18 331 313 310 200 150 114 37 51 35 30 276 281 290 210 228 231 206 181 173 179 187 190 195 199 209 212 210 207 198
64 75 92 83 51 29 38 24 359 335 292 288 58 80 58 29 352 355 89 82 161 227 214 202 214 191 201 202 184 176 186 187 183 187 199 206 213 214
76 101 123 138 94 34 42 342 333 309 308 333 28 33 55 206 235 235 167 169 228 247 202 187 222 199 192 199 184 174 180 189 181 178 180 184 195 199
96 117 143 181 271 342 356 306 279 312 334 6 11 339 290 204 230 260 262 241 227 223 189 175 197 197 213 213 192 191 180 179 178 175 173 181 194 201
162 165 163 167 231 243 247 241 246 318 319 344 330 301 281 266 283 279 267 263 245 228 227 213 217 221 216 214 209 196 193 193 181 180 181 192 205 207
173 181 195 215 226 245 245 239 230 267 284 266 254 263 260 255 261 278 285 284 286 267 239 221 202 214 237 258 221 212 208 209 194 185 187 195 214 214
191 224 238 239 253 263 255 252 239 230 255 265 265 273 272 268 259 254 252 268 274 270 259 251 232 225 240 255 242 213 207 206 193 198 207 212 218 213
229 257 268 269 253 256 274 281 278 229 233 268 272 271 271 273 272 259 249 254 265 275 274 264 257 256 264 258 240 229 214 200 205 214 220 222 224 215
235 260 268 277 265 232 237 247 258 264 264 263 270 281 285 285 286 281 275 267 257 259 266 264 253 241 245 257 238 235 217 216 210 203 204 223 238 232
243 245 252 270 283 264 232 253 273 290 297 287 297 299 291 294 296 294 289 280 262 262 273 262 226 233 240 248 251 234 225 211 221 227 229 226 210 224
255 265 254 256 295 308 330 311 313 324 317 302 293 286 287 292 299 302 305 303 300 292 292 275 246 254 254 248 260 260 235 222 222 221 235 239 239 240
Height
1551 1551 1551 1552 1552 1552 1553 1553 1554 1553 1554 1554 1554 1554 1553 1553 1553 1552 1552 1551 1552 1552 1552 1552 1552 1553 1553 1554 1554 1555 1555 1556 1556 1557 1557 1558 1559 1559
1548 1548 1548 1549 1549 1549 1549 1550 1550 1550 1550 1550 1551 1551 1551 1550 1550 1549 1548 1548 1548 1548 1548 1548 1548 1549 1549 1549 1550 1550 1551 1552 1552 1553 1553 1554 1555 1555
1545 1545 1545 1545 1545 1545 1546 1546 1546 1547 1546 1547 1547 1548 1548 1547 1547 1547 1546 1546 1545 1545 1545 1545 1545 1545 1545 1545 1546 1546 1547 1547 1548 1548 1549 1549 1550 1552
1542 1542 1542 1542 1542 1542 1543 1543 1543 1543 1543 1543 1544 1544 1544 1545 1545 1544 1544 1543 1543 1543 1542 1542 1542 1543 1543 1542 1542 1542 1543 1543 1543 1544 1544 1545 1546 1547
1540 1540 1540 1540 1539 1540 1540 1540 1540 1541 1541 1540 1540 1541 1541 1542 1542 1542 1541 1541 1541 1541 1541 1540 1540 1540 1540 1540 1539 1539 1539 1540 1540 1540 1541 1541 1542 1542
1537 1538 1537 1537 1537 1537 1537 1537 1537 1538 1538 1538 1538 1538 1539 1539 1539 1539 1539 1539 1539 1538 1538 1538 1538 1538 1537 1537 1536 1536 1536 1536 1536 1537 1537 1537 1538 1538
1535 1535 1535 1535 1535 1535 1535 1535 1535 1535 1535 1535 1535 1536 1536 1536 1536 1536 1536 1536 1536 1536 1536 1535 1535 1534 1534 1534 1534 1533 1533 1533 1533 1533 1533 1533 1534 1535
1533 1533 1533 1533 1533 1533 1533 1533 1533 1533 1533 1533 1533 1533 1533 1533 1534 1534 1534 1533 1533 1534 1534 1533 1533 1532 1532 1531 1531 1531 1530 1530 1530 1530 1530 1530 1531 1531
1532 1532 1532 1531 1531 1531 1531 1531 1531 1531 1531 1531 1531 1531 1531 1531 1531 1531 1531 1531 1530 1531 1531 1530 1531 1530 1530 1529 1529 1529 1528 1528 1527 1527 1527 1527 1527 1528
1531 1530 1530 1530 1529 1529 1529 1529 1529 1529 1529 1529 1529 1529 1528 1529 1528 1528 1528 1528 1528 1529 1529 1528 1528 1528 1528 1527 1527 1526 1526 1525 1525 1525 1525 1525 1525 1525
1530 1529 1529 1529 1528 1528 1528 1527 1527 1527 1527 1527 1527 1527 1526 1526 1526 1526 1526 1526 1525 1526 1526 1526 1525 1525 1525 1525 1525 1524 1524 1523 1523 1523 1522 1522 1523 1523
1529 1528 1528 1528 1527 1527 1527 1526 1526 1526 1525 1525 1525 1525 1524 1524 1523 1523 1523 1523 1522 1523 1523 1523 1523 1523 1523 1522 1522 1522 1522 1521 1521 1521 1521 1521 1521 1521
1528 1528 1527 1527 1526 1526 1526 1525 1525 1525 1524 1524 1523 1523 1522 1522 1521 1521 1521 1521 1521 1520 1520 1520 1520 1520 1520 1520 1520 1520 1520 1519 1519 1519 1519 1519 1520 1520
1527 1527 1527 1526 1526 1525 1525 1524 1524 1524 1523 1523 1522 1522 1521 1520 1520 1520 1519 1519 1518 1518 1518 1518 1517 1517 1517 1517 1518 1518 1518 1517 1517 1517 1517 1518 1518 1518
1526 1526 1526 1526 1525 1525 1524 1524 1523 1523 1522 1522 1521 1521 1520 1519 1519 1518 1517 1517 1516 1516 1516 1516 1516 1515 1515 1515 1515 1515 1515 1515 1515 1515 1515 1515 1516 1516
1525 1525 1525 1525 1524 1523 1523 1523 1522 1522 1521 1521 1520 1520 1519 1518 1517 1516 1516 1515 1514 1514 1514 1514 1514 1514 1513 1513 1513 1513 1513 1513 1513 1513 1513 1513 1514 1514
1523 1523 1523 1523 1522 1522 1521 1521 1521 1520 1520 1519 1519 1518 1517 1517 1516 1515 1515 1514 1513 1513 1512 1512 1511 1511 1511 1511 1511 1510 1511 1511 1511 1511 1511 1512 1512 1512
1522 1521 1521 1521 1521 1520 1520 1520 1520 1519 1519 1518 1517 1517 1516 1515 1514 1514 1513 1513 1512 1511 1510 1510 1509 1509 1509 1508 1509 1508 1508 1508 1508 1509 1509 1509 1510 1510
1520 1520 1520 1520 1520 1519 1519 1519 1518 1517 1517 1517 1516 1515 1515 1514 1513 1512 1512 1511 1510 1510 1509 1508 1508 1507 1507 1506 1506 1506 1506 1506 1506 1506 1507 1507 1507 1508
1519 1519 1519 1518 1518 1518 1517 1517 1517 1516 1515 1515 1514 1514 1513 1512 1512 1511 1510 1509 1508 1508 1507 1506 1506 1505 1504 1504 1503 1503 1503 1503 1503 1503 1504 1505 1505 1506
1517 1517 1517 1516 1516 1516 1516 1515 1515 1514 1513 1513 1512 1512 1511 1511 1510 1509 1508 1507 1506 1506 1505 1504 1504 1503 1503 1502 1501 1500 1501 1501 1501 1501 1501 1502 1502 1503
1515 1515 1514 1514 1514 1514 1513 1513 1513 1512 1511 1511 1510 1510 1509 1509 1508 1507 1506 1505 1504 1504 1503 1502 1501 1501 1500 1499 1498 1498 1498 1498 1498 1499 1499 1500 1499 1499
1513 1512 1512 1512 1512 1511 1511 1511 1510 1510 1509 1509 1508 1508 1507 1506 1506 1505 1504 1503 1503 1502 1501 1500 1499 1498 1498 1497 1497 1497 1496 1496 1496 1496 1496 1496 1497 1497